| time (UTC) | temp C | wind direction | speed KPH | gust KPH | rain 1hr cm | rain 24hr cm | rain mn cm | humidity % | barometer mb |
| 20260505221547 | 27 | 181 | 12.9 | 32.2 | 0.00 | 0.03 | 0.03 | 28 | 1007.1 |
| 20260505220047 | 27 | 227 | 12.9 | 29.0 | 0.00 | 0.03 | 0.03 | 29 | 1007.1 |
| 20260505214546 | 28 | 240 | 17.7 | 30.6 | 0.00 | 0.03 | 0.03 | 28 | 1007.0 |
| 20260505213053 | 28 | 252 | 17.7 | 33.8 | 0.00 | 0.03 | 0.03 | 29 | 1006.8 |
| 20260505211645 | 28 | 194 | 8.0 | 43.5 | 0.00 | 0.03 | 0.03 | 31 | 1006.7 |
| 20260505210043 | 28 | 258 | 11.3 | 29.0 | 0.00 | 0.03 | 0.03 | 29 | 1006.6 |
| 20260505204543 | 28 | 182 | 14.5 | 32.2 | 0.00 | 0.03 | 0.03 | 29 | 1006.8 |
| 20260505203041 | 28 | 278 | 12.9 | 33.8 | 0.00 | 0.03 | 0.03 | 30 | 1006.8 |
| 20260505201541 | 28 | 238 | 8.0 | 25.7 | 0.00 | 0.03 | 0.03 | 30 | 1007.0 |
| 20260505200043 | 28 | 211 | 11.3 | 30.6 | 0.00 | 0.03 | 0.03 | 30 | 1006.9 |
| 20260505194539 | 28 | 249 | 12.9 | 45.1 | 0.00 | 0.03 | 0.03 | 30 | 1007.2 |
| 20260505193036 | 28 | 186 | 9.7 | 35.4 | 0.00 | 0.03 | 0.03 | 32 | 1007.4 |
| 20260505191535 | 28 | 214 | 12.9 | 30.6 | 0.00 | 0.03 | 0.03 | 31 | 1007.7 |
| 20260505190037 | 28 | 218 | 12.9 | 41.8 | 0.00 | 0.03 | 0.03 | 31 | 1007.7 |
| 20260505184530 | 28 | 221 | 9.7 | 48.3 | 0.00 | 0.03 | 0.03 | 34 | 1008.1 |
| 20260505183035 | 28 | 215 | 8.0 | 32.2 | 0.00 | 0.03 | 0.03 | 35 | 1008.3 |
| 20260505181526 | 28 | 218 | 6.4 | 22.5 | 0.00 | 0.03 | 0.03 | 37 | 1008.3 |
| 20260505180042 | 27 | 213 | 4.8 | 22.5 | 0.00 | 0.03 | 0.03 | 37 | 1008.4 |
| 20260505174523 | 27 | 194 | 6.4 | 22.5 | 0.00 | 0.03 | 0.03 | 38 | 1008.4 |
| 20260505173020 | 27 | 134 | 8.0 | 27.4 | 0.00 | 0.03 | 0.03 | 39 | 1008.7 |
| 20260505171517 | 27 | 228 | 3.2 | 22.5 | 0.00 | 0.03 | 0.03 | 40 | 1008.8 |
| 20260505170013 | 26 | 286 | 6.4 | 22.5 | 0.00 | 0.03 | 0.03 | 41 | 1009.0 |
| 20260505164510 | 26 | 194 | 4.8 | 16.1 | 0.00 | 0.03 | 0.03 | 43 | 1009.2 |
| 20260505163009 | 26 | 191 | 4.8 | 14.5 | 0.00 | 0.03 | 0.03 | 44 | 1009.4 |
| 20260505161503 | 25 | 256 | 3.2 | 11.3 | 0.00 | 0.03 | 0.03 | 45 | 1009.6 |
| 20260505153053 | 23 | 338 | 1.6 | 16.1 | 0.00 | 0.03 | 0.03 | 50 | 1010.2 |
| 20260505151551 | 23 | 221 | 3.2 | 11.3 | 0.00 | 0.03 | 0.03 | 51 | 1010.4 |
| 20260505124517 | 17 | 211 | 4.8 | 12.9 | 0.00 | 0.03 | 0.03 | 73 | 1010.5 |
| 20260505123027 | 16 | 216 | 1.6 | 6.4 | 0.00 | 0.03 | 0.03 | 76 | 1010.6 |
| 20260505121514 | 15 | 213 | 0.0 | 4.8 | 0.00 | 0.03 | 0.03 | 79 | 1010.7 |
| 20260505120022 | 15 | 225 | 0.0 | 4.8 | 0.03 | 0.03 | 0.03 | 80 | 1010.7 |
| 20260505114512 | 15 | 211 | 1.6 | 6.4 | 0.03 | 0.03 | 0.03 | 79 | 1010.7 |
| 20260505113010 | 15 | 97 | 3.2 | 8.0 | 0.03 | 0.03 | 0.03 | 78 | 1010.4 |
| 20260505111517 | 15 | 269 | 0.0 | 3.2 | 0.03 | 0.03 | 0.03 | 76 | 1010.7 |
| 20260505101514 | 13 | 172 | 1.6 | 6.4 | 0.00 | 0.00 | 0.00 | 76 | 1010.7 |
| 20260505100007 | 13 | 192 | 0.0 | 6.4 | 0.00 | 0.00 | 0.00 | 76 | 1010.3 |
| 20260505094501 | 13 | 218 | 0.0 | 3.2 | 0.00 | 0.00 | 0.00 | 75 | 1010.0 |
| 20260505093105 | 13 | 197 | 0.0 | 4.8 | 0.00 | 0.00 | 0.00 | 75 | 1009.8 |
| 20260505091559 | 13 | 193 | 3.2 | 6.4 | 0.00 | 0.00 | 0.00 | 74 | 1009.9 |
| 20260505090104 | 13 | 203 | 1.6 | 8.0 | 0.00 | 0.00 | 0.00 | 74 | 1009.9 |
| 20260505084606 | 13 | 221 | 1.6 | 4.8 | 0.00 | 0.00 | 0.00 | 73 | 1009.9 |
| 20260505083100 | 13 | 197 | 0.0 | 4.8 | 0.00 | 0.00 | 0.00 | 73 | 1009.9 |
| 20260505081618 | 13 | 191 | 0.0 | 3.2 | 0.00 | 0.00 | 0.00 | 72 | 1009.8 |
| 20260505074552 | 14 | 209 | 1.6 | 6.4 | 0.00 | 0.00 | 0.00 | 70 | 1009.9 |
| 20260505073051 | 14 | 211 | 3.2 | 9.7 | 0.00 | 0.00 | 0.00 | 70 | 1009.9 |
| 20260505071555 | 15 | 220 | 0.0 | 9.7 | 0.00 | 0.00 | 0.00 | 69 | 1009.8 |
| 20260505070050 | 15 | 203 | 0.0 | 4.8 | 0.00 | 0.00 | 0.00 | 68 | 1009.8 |
| 20260505064546 | 15 | 222 | 1.6 | 6.4 | 0.00 | 0.00 | 0.00 | 68 | 1009.7 |
| 20260505063049 | 15 | 221 | 3.2 | 8.0 | 0.00 | 0.00 | 0.00 | 67 | 1009.8 |
| 20260505061546 | 15 | 249 | 1.6 | 8.0 | 0.00 | 0.00 | 0.00 | 67 | 1009.9 |
| 20260505060042 | 15 | 218 | 1.6 | 6.4 | 0.00 | 0.00 | 0.00 | 67 | 1010.1 |
| 20260505054545 | 15 | 226 | 1.6 | 4.8 | 0.00 | 0.00 | 0.00 | 65 | 1010.1 |
| 20260505053043 | 15 | 211 | 0.0 | 6.4 | 0.00 | 0.00 | 0.00 | 64 | 1010.1 |
| 20260505051540 | 15 | 193 | 0.0 | 8.0 | 0.00 | 0.00 | 0.00 | 64 | 1010.2 |
| 20260505041528 | 16 | 219 | 1.6 | 11.3 | 0.00 | 0.00 | 0.00 | 59 | 1010.4 |
| 20260505040026 | 16 | 213 | 3.2 | 8.0 | 0.00 | 0.00 | 0.00 | 57 | 1010.4 |
| 20260505034525 | 16 | 202 | 3.2 | 11.3 | 0.00 | 0.00 | 0.00 | 56 | 1010.5 |
| 20260505033027 | 17 | 210 | 3.2 | 12.9 | 0.00 | 0.00 | 0.00 | 55 | 1010.5 |
| 20260505031531 | 17 | 209 | 3.2 | 12.9 | 0.00 | 0.00 | 0.00 | 55 | 1010.5 |
| 20260505030024 | 17 | 193 | 1.6 | 11.3 | 0.00 | 0.00 | 0.00 | 54 | 1010.7 |
| 20260505024524 | 17 | 211 | 3.2 | 12.9 | 0.00 | 0.00 | 0.00 | 53 | 1010.6 |
| 20260505023023 | 18 | 232 | 4.8 | 12.9 | 0.00 | 0.00 | 0.00 | 51 | 1010.7 |
| 20260505021521 | 18 | 200 | 1.6 | 12.9 | 0.00 | 0.00 | 0.00 | 50 | 1010.8 |
| 20260505020021 | 18 | 220 | 6.4 | 16.1 | 0.00 | 0.00 | 0.00 | 50 | 1010.7 |
| 20260505014521 | 18 | 208 | 4.8 | 14.5 | 0.00 | 0.00 | 0.00 | 47 | 1010.7 |
| 20260505013023 | 19 | 203 | 3.2 | 12.9 | 0.00 | 0.00 | 0.00 | 42 | 1010.5 |
| 20260505011526 | 19 | 238 | 3.2 | 14.5 | 0.00 | 0.00 | 0.00 | 41 | 1010.3 |
| 20260505010029 | 20 | 225 | 1.6 | 11.3 | 0.00 | 0.00 | 0.00 | 40 | 1010.0 |
| 20260505004518 | 20 | 211 | 4.8 | 14.5 | 0.00 | 0.00 | 0.00 | 39 | 1009.8 |
| 20260505003017 | 20 | 227 | 1.6 | 9.7 | 0.00 | 0.00 | 0.00 | 38 | 1009.7 |
| 20260505001517 | 20 | 236 | 3.2 | 14.5 | 0.00 | 0.00 | 0.00 | 38 | 1009.4 |
| 20260505000029 | 21 | 223 | 4.8 | 12.9 | 0.00 | 0.00 | 0.00 | 37 | 1009.1 |
| 20260504234516 | 21 | 167 | 1.6 | 11.3 | 0.00 | 0.00 | 0.00 | 36 | 1008.9 |
| 20260504233015 | 21 | 220 | 3.2 | 16.1 | 0.00 | 0.00 | 0.00 | 36 | 1008.8 |
| 20260504231514 | 21 | 213 | 3.2 | 14.5 | 0.00 | 0.00 | 0.00 | 36 | 1008.5 |
| 20260504230014 | 21 | 211 | 3.2 | 14.5 | 0.00 | 0.00 | 0.00 | 35 | 1008.5 |
| 20260504224514 | 22 | 211 | 6.4 | 19.3 | 0.00 | 0.00 | 0.00 | 35 | 1008.3 |
| 20260504223013 | 22 | 234 | 4.8 | 17.7 | 0.00 | 0.00 | 0.00 | 34 | 1008.5 |